Location: Harburg
(48.7667°N, 10.6667°E)
Time: 02:27:09
(UTC+00:00)

Cosmos 1892 Rocket - Pass Details

Date: 18 September 2020
Orbit: 606 x 633 km, 82.5° (Epoch: 24 October)

Event Time Altitude Azimuth Distance (km) Brightness Sun altitude
Rises 20:14:47 0° 349° (N) 2,878 7.7 -27.0°
Reaches altitude 10° 20:17:01 10° 349° (N) 1,968 6.7 -27.3°
Enters shadow 20:20:06 46° 345° (NNW) 823 4.4 -27.7°
